Wind_Speed
2 2 3 4 5 7 9 10 11 11 12 14 15 15 15 15 16 17 18 19 19 19 19 18 19 20 20 19 20 21 22 22 22 22 23 23 23 24 25 27 27 27 26 25
2 3 5 6 7 9 10 11 12 13 13 14 14 15 14 15 16 17 17 17 17 18 17 17 19 19 19 19 18 21 22 22 22 23 23 23 25 25 26 28 29 27 26 27
4 5 6 7 8 10 12 13 14 15 15 15 15 14 14 14 15 15 16 16 16 15 14 16 18 17 19 20 21 20 21 22 22 23 24 25 25 26 28 28 28 29 28 28
5 6 8 9 9 10 11 14 15 15 15 14 13 12 11 12 14 15 16 16 16 16 16 15 17 18 19 20 20 21 21 22 23 24 24 25 26 27 28 28 27 28 29 28
7 7 9 10 10 12 13 14 14 14 14 13 11 12 12 13 13 14 15 15 15 15 16 16 17 18 18 19 20 21 21 21 23 25 26 26 27 27 27 27 27 27 27 27
7 7 9 10 11 12 13 13 13 13 12 13 13 13 13 12 13 13 13 14 14 15 15 16 17 18 18 18 20 20 20 22 24 25 25 26 27 27 27 27 27 26 27 27
7 7 8 10 10 10 12 13 13 13 11 12 13 14 13 12 12 12 12 13 13 13 14 16 17 17 17 18 19 21 22 23 24 25 25 26 26 27 27 26 26 26 27 27
8 7 8 9 10 11 12 12 13 12 12 11 12 13 13 12 12 12 12 12 11 13 14 15 16 17 18 19 20 22 23 23 23 24 25 25 25 25 25 25 25 26 26 27
9 8 8 9 9 10 11 11 11 12 12 12 11 11 12 11 10 10 10 11 12 13 15 15 15 17 18 19 20 21 21 21 22 23 24 23 24 24 24 25 25 25 25 25
10 10 9 9 8 10 10 10 11 11 12 11 11 11 10 8 9 11 10 11 12 13 13 14 15 17 17 18 18 18 19 20 21 22 23 23 23 23 24 24 24 24 24 23
10 10 10 10 9 9 8 9 10 11 11 12 12 11 9 9 11 10 10 11 12 12 12 14 16 16 16 17 17 18 18 18 20 20 21 21 22 23 23 23 23 23 23 23
10 9 10 9 9 9 9 10 10 10 10 11 12 12 10 10 11 11 11 13 14 12 13 14 15 15 15 16 17 18 17 17 18 20 21 21 21 21 21 22 22 22 23 23
9 9 9 8 7 7 7 8 9 10 11 13 13 12 11 11 11 11 13 13 12 12 13 14 15 14 15 16 18 18 17 17 18 19 20 20 20 20 20 21 22 22 21 21
11 9 8 8 7 7 8 8 9 11 13 12 12 12 11 11 11 10 11 12 12 13 13 14 15 15 16 17 18 18 18 17 18 19 19 19 19 19 20 20 20 20 20 21
12 9 8 9 9 10 11 11 11 13 13 13 13 13 12 11 11 11 11 11 11 12 13 14 14 15 15 16 16 17 17 18 18 19 19 19 19 19 19 19 19 19 19 20
11 10 9 9 10 10 11 11 12 13 14 13 13 13 12 11 10 10 11 11 12 13 12 13 13 14 15 15 16 16 17 18 18 18 18 18 18 18 19 19 18 18 18 19
11 10 9 9 10 10 10 11 12 13 13 13 13 12 12 11 10 11 11 11 12 11 12 12 13 14 14 15 16 16 17 18 18 17 17 18 18 18 18 17 17 17 18 18
11 11 10 11 11 11 11 12 13 14 14 14 14 13 12 12 10 11 11 11 11 11 11 12 13 14 14 14 15 16 17 17 16 16 17 17 17 16 16 16 16 16 17 17
12 11 12 13 12 12 11 12 12 13 14 14 13 13 13 13 11 10 11 11 11 11 11 12 13 13 13 13 15 16 16 15 15 16 16 16 16 16 15 15 15 15 15 17
12 13 14 14 14 13 13 14 13 13 14 13 13 13 13 12 11 10 10 10 11 11 12 12 12 12 13 14 15 15 14 14 14 14 15 15 16 15 15 15 15 16 17 17
13 14 15 16 16 15 15 15 14 13 14 13 13 14 13 13 12 11 11 11 11 11 11 12 12 13 14 14 13 13 13 13 13 14 14 15 15 15 15 15 15 16 17 17
15 16 16 17 17 16 16 15 14 14 15 15 15 14 13 13 13 12 11 11 10 11 12 12 12 13 13 13 12 12 12 12 12 13 14 15 14 14 15 15 15 16 17 18
15 16 17 17 17 16 15 15 14 15 15 15 14 13 13 13 13 13 12 11 10 11 11 11 12 12 12 11 11 11 11 11 12 13 15 15 14 14 15 16 16 17 18 19
15 16 16 16 16 15 15 14 14 15 15 15 14 13 13 12 13 12 11 11 11 10 10 10 11 11 11 11 10 11 10 10 12 13 14 14 14 15 16 16 17 17 18 20
16 15 15 15 16 15 14 14 15 15 15 15 14 13 13 12 12 11 10 11 10 9 9 9 9 10 10 10 10 10 10 10 12 14 14 14 15 16 17 17 17 18 19 20
16 15 16 16 15 15 14 14 15 15 14 14 13 12 12 12 12 11 10 9 9 8 8 9 9 9 9 9 9 9 9 10 11 13 14 14 15 16 17 18 18 19 20 21
Wind_Direction
208 241 254 273 271 267 265 267 264 260 265 266 266 266 270 271 270 272 273 274 277 281 278 275 276 277 278 278 276 274 275 275 275 279 281 283 285 287 287 289 292 293 291 289
284 292 282 278 277 272 273 275 271 270 267 266 268 266 269 268 270 273 275 278 282 284 278 277 278 276 276 278 278 273 276 277 277 280 283 285 286 286 288 291 293 294 293 290
302 302 301 294 283 280 275 275 275 271 267 266 274 273 274 275 275 275 274 277 281 284 278 278 278 278 280 280 283 280 279 278 279 281 282 284 286 287 290 292 292 293 293 291
313 302 305 306 287 282 282 276 274 274 274 271 272 272 276 279 277 277 275 279 283 287 285 282 284 285 284 283 286 285 286 284 283 284 284 285 287 290 290 291 293 293 294 292
322 310 306 308 303 295 290 285 281 282 278 269 267 275 276 276 279 280 280 284 284 284 282 284 288 290 289 290 290 288 289 288 289 289 289 288 290 290 292 292 291 291 292 293
321 317 318 314 308 300 296 296 284 279 275 268 266 272 274 279 288 288 287 288 284 284 286 288 290 292 292 292 292 290 291 292 292 291 290 290 293 294 295 293 291 292 293 293
319 314 308 304 305 305 301 298 290 280 276 271 270 273 279 285 284 285 286 284 287 290 287 285 289 294 292 293 293 293 293 292 293 293 292 292 295 295 295 296 295 294 293 293
321 314 308 309 312 316 314 305 301 295 295 287 276 277 282 285 289 291 289 284 287 289 286 284 288 293 294 296 297 296 296 295 295 296 296 295 295 297 297 297 298 297 295 295
316 312 310 312 313 309 309 306 303 298 300 297 293 290 286 287 291 293 293 290 291 292 290 290 295 298 300 301 301 300 299 298 297 297 297 298 298 299 300 299 300 300 299 296
317 312 311 314 309 304 301 304 305 299 297 298 291 292 294 294 292 292 291 300 304 304 298 299 302 302 302 303 304 304 303 302 302 300 298 298 298 300 301 301 300 302 300 299
325 319 314 309 309 310 289 298 306 306 300 300 302 301 300 294 301 303 309 313 312 312 307 309 309 306 305 306 307 307 305 304 304 304 302 302 301 301 302 303 302 301 300 301
336 329 319 310 309 312 303 306 310 314 313 308 306 310 305 298 303 303 308 310 307 309 313 313 311 313 312 313 314 313 311 309 308 307 306 307 306 304 304 304 305 304 302 303
335 331 325 319 313 312 314 320 314 317 315 312 308 308 304 298 297 302 307 311 310 318 317 314 319 320 318 319 322 324 319 315 313 311 312 312 309 308 308 308 307 306 305 305
330 330 327 322 320 319 322 329 320 314 310 312 314 313 307 304 305 304 308 315 313 314 317 316 316 318 318 320 321 321 321 319 317 317 316 315 315 314 312 312 310 309 308 307
332 329 324 316 313 314 319 327 324 318 318 315 313 314 313 312 314 312 315 315 314 316 317 318 316 318 321 322 321 321 323 324 323 322 322 320 318 318 316 316 314 313 311 311
329 328 322 321 323 324 327 330 327 323 323 322 319 317 316 315 312 312 312 313 312 316 316 318 320 323 323 323 325 324 327 328 328 328 327 327 324 321 320 318 317 316 315 314
332 330 325 324 325 326 328 327 322 319 320 317 319 321 317 312 305 307 308 310 310 313 316 318 322 325 326 326 327 330 330 331 331 331 330 328 327 325 324 323 322 321 320 318
330 328 323 324 321 323 326 321 319 319 321 320 317 318 317 315 309 309 307 304 305 311 313 316 322 327 330 331 332 333 335 335 336 338 339 338 336 333 331 331 329 326 325 324
328 327 322 320 319 321 320 317 318 320 320 321 318 316 315 310 309 307 304 302 304 311 313 317 322 328 333 333 333 334 337 338 338 340 342 344 344 342 342 341 336 332 331 329
322 321 321 321 319 317 318 319 317 317 318 318 318 320 318 314 310 308 306 303 306 312 317 321 324 329 333 334 335 336 338 339 340 343 345 347 347 347 346 344 341 339 338 337
316 317 318 318 316 313 316 316 314 313 315 313 315 316 317 314 312 310 310 310 312 314 315 320 325 331 332 333 336 340 340 341 345 347 347 347 348 348 348 347 345 343 342 340
314 314 315 317 318 315 316 315 312 310 308 309 311 310 310 311 309 305 304 307 312 316 317 319 323 328 330 332 336 341 343 344 347 347 346 345 346 348 351 351 349 347 345 343
309 310 310 312 316 316 314 312 310 309 309 310 307 305 305 306 307 305 302 304 305 312 317 319 322 325 328 330 333 339 341 345 346 347 347 348 346 349 351 351 350 348 347 345
306 306 306 309 314 314 310 307 309 307 308 311 307 303 303 306 308 304 302 302 303 307 312 316 319 323 327 329 331 335 337 342 346 348 348 349 349 350 350 351 351 349 347 345
307 309 308 308 309 307 302 301 302 300 302 305 302 299 301 301 301 305 306 299 299 302 307 312 317 319 323 328 329 333 337 341 345 348 350 350 351 351 351 351 350 348 347 346
307 308 305 303 305 303 301 300 298 299 301 303 301 298 298 297 300 304 302 298 299 304 307 313 317 318 320 325 330 335 340 343 345 348 350 351 352 353 352 352 350 350 349 350
Height
5837 5838 5837 5837 5837 5836 5836 5835 5835 5836 5836 5835 5835 5835 5835 5835 5834 5834 5833 5834 5834 5835 5835 5834 5834 5833 5833 5832 5831 5830 5829 5828 5828 5827 5826 5826 5824 5823 5821 5819 5816 5814 5811 5810
5837 5836 5835 5835 5834 5834 5832 5832 5831 5832 5832 5832 5831 5831 5831 5831 5830 5829 5829 5829 5830 5830 5830 5830 5829 5828 5827 5826 5825 5825 5824 5823 5822 5821 5820 5819 5818 5816 5814 5812 5810 5808 5805 5803
5835 5835 5833 5832 5832 5831 5829 5829 5828 5828 5828 5828 5828 5828 5827 5827 5826 5825 5825 5826 5826 5826 5825 5825 5824 5823 5822 5822 5821 5820 5819 5817 5816 5815 5814 5813 5811 5810 5808 5806 5804 5801 5799 5797
5832 5832 5831 5830 5829 5828 5827 5826 5825 5824 5824 5824 5825 5824 5824 5823 5822 5822 5822 5822 5822 5822 5820 5819 5819 5818 5818 5817 5816 5815 5814 5812 5810 5809 5808 5806 5805 5803 5801 5798 5796 5794 5792 5790
5831 5829 5828 5827 5826 5825 5824 5823 5822 5821 5821 5821 5821 5820 5821 5819 5819 5818 5817 5817 5817 5817 5816 5815 5815 5814 5813 5812 5811 5809 5807 5806 5805 5803 5801 5799 5798 5796 5793 5791 5789 5787 5785 5783
5829 5828 5826 5824 5823 5822 5821 5820 5819 5819 5818 5818 5818 5818 5818 5816 5815 5814 5813 5812 5812 5812 5811 5811 5810 5810 5809 5808 5806 5804 5801 5800 5799 5797 5795 5793 5791 5788 5786 5784 5782 5780 5778 5775
5828 5827 5825 5822 5821 5821 5819 5818 5816 5815 5814 5814 5815 5814 5815 5813 5811 5809 5809 5809 5808 5808 5807 5807 5806 5805 5804 5802 5800 5798 5796 5794 5793 5790 5788 5786 5784 5782 5780 5777 5774 5772 5770 5768
5825 5824 5822 5820 5819 5817 5816 5815 5814 5812 5811 5811 5811 5811 5811 5809 5807 5806 5805 5805 5804 5804 5804 5803 5802 5801 5799 5797 5795 5792 5790 5788 5786 5784 5782 5779 5777 5775 5772 5770 5768 5765 5763 5760
5822 5821 5820 5818 5816 5815 5813 5812 5811 5809 5808 5808 5808 5808 5807 5806 5805 5803 5803 5802 5802 5801 5800 5799 5797 5796 5794 5792 5790 5787 5785 5782 5780 5778 5775 5773 5771 5768 5766 5763 5760 5758 5756 5753
5819 5819 5818 5816 5815 5813 5811 5810 5809 5807 5805 5805 5805 5804 5804 5803 5802 5801 5800 5800 5799 5798 5797 5795 5793 5791 5789 5787 5784 5782 5779 5777 5774 5772 5770 5767 5765 5762 5760 5757 5754 5752 5749 5747
5817 5817 5816 5814 5812 5810 5809 5808 5806 5805 5804 5802 5801 5803 5801 5801 5800 5799 5798 5797 5796 5794 5793 5791 5789 5787 5785 5783 5780 5777 5774 5771 5769 5767 5764 5762 5759 5756 5754 5751 5748 5746 5743 5741
5815 5814 5813 5812 5809 5808 5807 5806 5804 5803 5802 5800 5798 5801 5798 5798 5796 5795 5794 5793 5792 5790 5789 5788 5785 5783 5781 5778 5776 5772 5769 5767 5764 5761 5759 5756 5753 5751 5748 5746 5743 5740 5737 5735
5814 5812 5811 5810 5810 5808 5806 5804 5802 5800 5799 5797 5796 5798 5795 5794 5793 5792 5791 5790 5788 5786 5785 5783 5781 5779 5776 5774 5771 5768 5765 5762 5760 5757 5754 5751 5748 5746 5743 5740 5737 5734 5731 5729
5812 5811 5809 5808 5806 5804 5804 5802 5801 5799 5797 5795 5794 5793 5792 5791 5790 5789 5788 5786 5785 5784 5782 5780 5778 5776 5774 5771 5768 5765 5762 5759 5756 5753 5749 5747 5744 5741 5738 5735 5732 5729 5727 5724
5811 5810 5808 5806 5805 5803 5802 5801 5798 5797 5794 5793 5792 5790 5789 5788 5787 5786 5785 5784 5783 5781 5780 5778 5775 5773 5771 5768 5765 5762 5759 5756 5752 5749 5746 5742 5739 5736 5733 5730 5728 5725 5722 5720
5809 5808 5806 5805 5804 5802 5800 5799 5797 5794 5792 5791 5789 5788 5786 5785 5784 5783 5782 5781 5780 5779 5777 5775 5773 5770 5768 5765 5762 5759 5756 5753 5749 5746 5742 5739 5735 5732 5729 5727 5724 5721 5719 5716
5807 5806 5805 5804 5802 5800 5799 5797 5794 5792 5790 5789 5787 5786 5783 5782 5781 5780 5779 5778 5777 5776 5774 5772 5770 5768 5765 5762 5760 5757 5754 5750 5746 5743 5739 5736 5732 5729 5726 5723 5721 5718 5715 5712
5806 5804 5802 5801 5801 5798 5799 5794 5792 5790 5788 5786 5784 5782 5781 5779 5778 5777 5776 5775 5775 5773 5771 5770 5768 5765 5762 5760 5757 5754 5751 5748 5744 5741 5737 5733 5729 5726 5723 5720 5718 5715 5712 5709
5804 5803 5800 5799 5797 5795 5795 5792 5789 5787 5785 5784 5781 5779 5778 5776 5775 5774 5773 5772 5772 5770 5768 5767 5765 5763 5760 5757 5755 5752 5749 5746 5743 5739 5735 5731 5728 5725 5721 5718 5715 5712 5709 5706
5802 5800 5799 5796 5793 5792 5792 5789 5787 5786 5783 5781 5778 5776 5775 5773 5772 5772 5770 5769 5768 5767 5765 5764 5762 5760 5758 5755 5753 5750 5747 5744 5741 5738 5734 5731 5727 5724 5720 5717 5713 5710 5707 5704
5800 5798 5796 5794 5791 5789 5788 5786 5785 5783 5781 5778 5776 5774 5772 5771 5770 5769 5767 5766 5765 5764 5762 5761 5759 5758 5756 5753 5751 5748 5746 5743 5740 5737 5734 5730 5727 5723 5719 5716 5712 5709 5705 5702
5796 5794 5792 5790 5788 5788 5784 5782 5781 5779 5776 5774 5773 5771 5770 5768 5767 5765 5764 5762 5762 5760 5759 5758 5757 5755 5753 5751 5749 5747 5744 5742 5739 5736 5733 5730 5726 5722 5719 5715 5711 5708 5704 5700
5793 5791 5788 5787 5786 5783 5780 5778 5776 5774 5772 5771 5769 5768 5767 5766 5764 5762 5761 5760 5759 5758 5757 5756 5754 5753 5751 5749 5747 5745 5743 5741 5738 5735 5732 5729 5725 5722 5718 5714 5710 5707 5703 5699
5789 5787 5785 5783 5781 5779 5776 5774 5772 5770 5768 5767 5766 5764 5763 5762 5761 5760 5759 5758 5757 5755 5754 5753 5752 5751 5749 5747 5746 5744 5741 5739 5737 5734 5731 5728 5725 5721 5717 5713 5710 5706 5701 5697
5785 5782 5781 5779 5778 5776 5773 5771 5769 5767 5765 5763 5762 5761 5760 5759 5757 5756 5756 5755 5754 5753 5752 5751 5750 5749 5747 5746 5744 5742 5740 5738 5736 5733 5730 5727 5724 5720 5716 5712 5708 5704 5700 5695
5780 5778 5776 5775 5773 5771 5769 5767 5765 5763 5761 5760 5758 5757 5756 5755 5754 5753 5752 5752 5751 5751 5750 5749 5748 5747 5746 5744 5743 5741 5739 5737 5735 5732 5730 5726 5723 5719 5716 5712 5707 5703 5699 5694